Location: Coll
(42.4728°N, 0.7714°E)
Time: 12:52:33
(UTC+00:00)

Nadezhda 4 Rocket - Pass Details

Date: 23 October 2020
Orbit: 951 x 991 km, 82.9° (Epoch: 30 November)

Event Time Altitude Azimuth Distance (km) Brightness Sun altitude
Rises 04:26:06 0° 175° (S) 3,611 7.0 -21.6°
Reaches altitude 10° 04:28:36 10° 172° (S) 2,668 6.3 -21.1°
Maximum altitude 04:34:35 63° 93° (E) 1,059 4.4 -20.0°
Drops below altitude 10° 04:40:38 10° 14° (NNE) 2,690 6.5 -18.9°
Sets 04:43:10 0° 11° (NNE) 3,643 7.2 -18.4°
